Regional Weather Roundup
Issued by NWS State College, PA

Home | Current Version | Previous Version | Graphics & Text | Print | Product List | Glossary Off
Versions: 1 2 3 4 5 6 7 8 9 10 11 12 13 14 15 16 17 18 19 20 21 22 23 24 25 26 27 28 29 30 31 32 33 34 35 36 37 38 39 40 41 42 43 44 45 46 47 48 49 50

000
ASUS41 KCTP 280110
RWRCTP

REGIONAL WEATHER ROUNDUP
NATIONAL WEATHER SERVICE STATE COLLEGE PA
900 PM EDT FRI MAR 27 2015

Note: "fair" indicates few or no clouds below 12,000 feet with no
significant weather and/or obstructions to visibility.

* = STATION THAT DOES NOT REPORT PRECIPITATION /E.G. RAIN...SNOW...ETC/
    THUNDER OR FOG.

PAZ002>004-007>009-013>016-020>023-029>032-280200-
WESTERN PENNSYLVANIA

CITY           SKY/WX    TMP DP  RH WIND       PRES   REMARKS
ERIE           CLOUDY    21  12  68 NW12      30.03R WCI   9
MEADVILLE      CLOUDY    19  11  70 NW8       29.97R WCI   9
FRANKLIN*      CLOUDY    19  10  68 NW9G20    29.96R WCI   9
NEW CASTLE     MOCLDY    21  15  78 NW12G18   30.01R WCI   9
BEAVER COUNTY  FLURRIES  23  18  80 N13       29.96R WCI  11
BUTLER*        MOCLDY    25  18  74 NW7       29.96R
PITTSBURGH INT LGT SNOW  25  20  81 N18       29.95R WCI  11
PITTSBURGH     CLOUDY    27  12  53 NW8       29.92R
INDIANA*       CLOUDY    28  16  59 N8        29.93R
LATROBE        CLOUDY    28  19  69 NW9       29.93
WASHINGTON CO* CLOUDY    27  16  63 W6        29.96R
$$

PAZ004>006-010>012-017>019-024>028-033>037-041-042-045-046-049>053-280200-
CENTRAL PENNSYLVANIA

CITY           SKY/WX    TMP DP  RH WIND       PRES   REMARKS
BRADFORD       LGT SNOW  21  16  81 NW12      29.84R WCI   9
DUBOIS         LGT SNOW  25  19  78 NW13      29.85R WCI  14
CLEARFIELD     FLURRIES  28  19  69 N12       29.85R
JOHNSTOWN      FLURRIES  24  17  74 NW13      29.82R WCI  12
ALTOONA        FLURRIES  31  21  66 NW10G22   29.85R
STATE COLLEGE  CLEAR     32  19  59 NW13      29.85R
WILLIAMSPORT   CLOUDY    37  25  61 NW12      29.83R
SELINSGROVE    CLOUDY    40  24  53 NW12      29.82R
FT INDIANTOWN  CLOUDY    41  22  46 N1        29.80R
CAPITAL CITY   CLOUDY    41  22  46 W9        29.83R
HARRISBURG     CLOUDY    42  24  49 NW15      29.82R
YORK           CLOUDY    41  23  48 NW8       29.82R
$$

PAZ038>040-043-044-047-048-054-055-060>062-067>071-280200-
EASTERN PENNSYLVANIA

CITY           SKY/WX    TMP DP  RH WIND       PRES   REMARKS
SCRANTON       CLOUDY    36  25  64 N9        29.81R
MOUNT POCONO   CLOUDY    32  22  66 NW7       29.75R
ALLENTOWN      CLOUDY    38  26  62 CALM      29.81R
QUAKERTOWN*    CLOUDY    39  25  56 N3        29.80R
READING        CLOUDY    42  22  44 N9        29.79R
LANCASTER      CLOUDY    40  23  50 NW6       29.81R
COATESVILLE    MOCLDY    37  27  65 NW6       29.79R
POTTSTOWN      PTCLDY    40  24  53 N5        29.80R
BLUE BELL      CLOUDY    43  28  56 CALM      29.78S
DOYLESTOWN     MOCLDY    39  24  55 N7        29.78R
WILLOW GROVE   NOT AVBL
NORTH PHILA    MOCLDY    44  24  45 N8        29.81R
PHILADELPHIA   CLOUDY    45  25  45 N10       29.80R
$$



USA.gov is the U.S. government's official web portal to all federal, state and local government web resources and services.